Regional Weather Roundup
Issued by NWS

Home | Current Version | Previous Version | Graphics & Text | Print | Product List | Glossary On
Versions: 1 2 3 4 5 6 7 8 9 10 11 12 13 14 15 16 17 18 19 20 21 22 23 24 25 26 27 28 29 30 31 32 33 34 35 36 37 38 39 40 41 42 43 44 45 46 47 48 49
000
ASUS45 KCYS 271510
RWRWY

WYOMING REGIONAL WEATHER ROUNDUP
NATIONAL WEATHER SERVICE CHEYENNE WY
800 AM MST FRI FEB 27 2015

NOTE:  "FAIR" INDICATES FEW OR NO CLOUDS BELOW 12,000 FEET
WITH NO SIGNIFICANT WEATHER AND/OR OBSTRUCTIONS TO VISIBILITY.

WYZ001-271600-
YELLOWSTONE NATIONAL PARK

CITY           SKY/WX    TMP DP  RH WIND       PRES   REMARKS
LK YELLOWSTONE   N/A     -2  -6  83 CALM      29.78S
W YELLOWSTONE  NOT AVBL

$$
WYZ002>013-054>058-071-098>099-271600-
NORTHERN WYOMING

CITY           SKY/WX    TMP DP  RH WIND       PRES   REMARKS
JACKSON        LGT SNOW   7   5  92 CALM      29.83S
CODY           FAIR       1   0  92 S6        29.89S WCI -10
GREYBULL       FAIR      10   2  69 CALM      29.99F
WORLAND        FAIR       7   1  76 S3        29.97S
SHERIDAN       FAIR      -8 -11  86 CALM      29.98S
BUFFALO        FAIR       0  -5  79 SE10      29.89F WCI -16
GILLETTE       FAIR       4  -1  80 S20G30    29.99F WCI -17
HULETT         FAIR      12   1  62 S12       30.03F WCI  -2
NEWCASTLE      CLOUDY     9   0  66 SE15G22   30.11S WCI  -8

$$
WYZ014>020-022>026-101>103-271600-
CENTRAL WYOMING

CITY           SKY/WX    TMP DP  RH WIND       PRES   REMARKS
BIG PINEY      CLOUDY    10   4  76 CALM      29.84S
PINEDALE       FAIR       3   0  85 W5        29.84S WCI  -6
DUBOIS         FAIR       1  -4  78 CALM      29.75S
LANDER         FAIR       1  -4  79 CALM      29.89S
RIVERTON       CLOUDY     4   1  88 S3        29.91S
CASPER         FAIR       2  -2  83 E5        29.93S WCI  -8
DOUGLAS        FAIR       7   2  80 SE20G26   29.99F WCI -13

$$
WYZ021-027>030-104>119-271600-
SOUTHERN WYOMING

CITY           SKY/WX    TMP DP  RH WIND       PRES   REMARKS
EVANSTON       CLOUDY    12   9  87 NE6       29.80R WCI   3
FORT BRIDGER   LGT SNOW  11  10  93 CALM      29.85S
ROCK SPRINGS   FAIR       3  -1  83 S3        29.86R
DIXON          FAIR       7   2  82 CALM      29.91R
RAWLINS        FAIR       2  -3  80 CALM      29.85S
SARATOGA       FAIR      -2  -4  92 CALM      29.85R
LARAMIE        FAIR       0  -3  87 S14       29.81R WCI -19
CHEYENNE       CLOUDY     3   0  87 S13       29.95R FOG     WCI -14
TORRINGTON     CLOUDY     7   1  76 SE13      30.12S WCI  -9
PINE BLUFFS    CLOUDY     7   3  85 SE10      30.05S WCI  -8

$$


USA.gov is the U.S. government's official web portal to all federal, state and local government web resources and services.